Regional Weather Roundup
Issued by NWS

Home | Current Version | Previous Version | Graphics & Text | Print | Product List | Glossary On
Versions: 1 2 3 4 5 6 7 8 9 10 11 12 13 14 15 16 17 18 19 20 21 22 23 24 25 26 27 28 29 30 31 32 33 34 35 36 37 38 39 40 41 42 43 44 45 46 47 48 49 50
045
ASUS45 KCYS 160710
RWRWY

WYOMING REGIONAL WEATHER ROUNDUP
NATIONAL WEATHER SERVICE CHEYENNE WY
1200 AM MST TUE JAN 16 2018

NOTE:  "FAIR" INDICATES FEW OR NO CLOUDS BELOW 12,000 FEET
WITH NO SIGNIFICANT WEATHER AND/OR OBSTRUCTIONS TO VISIBILITY.

WYZ001-160800-
YELLOWSTONE NATIONAL PARK

CITY           SKY/WX    TMP DP  RH WIND       PRES   REMARKS
LK YELLOWSTONE   N/A     -3  -7  82 CALM      30.40S
W YELLOWSTONE  NOT AVBL

$$
WYZ002>013-054>058-071-098>099-160800-
NORTHERN WYOMING

CITY           SKY/WX    TMP DP  RH WIND       PRES   REMARKS
JACKSON        MOCLDY     3   1  92 N6        30.43S FOG     WCI  -8
CODY           FAIR      12   9  87 S5        30.44F WCI   4
GREYBULL       FAIR      -1  -4  87 SE6       30.54F WCI -13
WORLAND        FAIR      -2  -4  91 SE3       30.51F
SHERIDAN       FAIR     -11 -16  78 CALM      30.51F
BUFFALO        FAIR       7  -4  60 S5        30.45F WCI  -2
GILLETTE         N/A     -4 -11  72 S12       30.52F WCI -22
HULETT         FAIR      -9 -17  70 CALM      30.54F
NEWCASTLE      FAIR     -11 -18  70 S3        30.59S

$$
WYZ014>020-022>026-101>103-160800-
CENTRAL WYOMING

CITY           SKY/WX    TMP DP  RH WIND       PRES   REMARKS
BIG PINEY      CLOUDY    25  17  72 S3        30.43S
PINEDALE       CLOUDY    23  16  74 SE3       30.43S
DUBOIS         FAIR      10   7  85 NW8       30.38F WCI  -1
LANDER         CLOUDY    21  15  78 SW3       30.46S
RIVERTON       CLOUDY    17  10  74 CALM      30.47F
CASPER         FAIR      -4  -8  83 W5        30.48F WCI -15
DOUGLAS        FAIR      -4 -11  72 E3        30.53F

$$
WYZ021-027>030-104>119-160800-
SOUTHERN WYOMING

CITY           SKY/WX    TMP DP  RH WIND       PRES   REMARKS
EVANSTON       FAIR      20  15  81 E9        30.37F WCI   9
FORT BRIDGER   FAIR      15  14  95 NE7       30.43S WCI   5
ROCK SPRINGS   FAIR      13   5  70 NE3       30.43F
DIXON            N/A     11  -3  54 E3        30.47S
RAWLINS        FAIR       6  -2  69 CALM      30.43F
SARATOGA       FAIR       3  -6  66 CALM      30.43F
LARAMIE        FAIR       1  -8  66 SE6       30.38F WCI -10
CHEYENNE       FAIR      -3  -7  82 W8        30.44S WCI -18
TORRINGTON     FAIR       1  -4  79 CALM      30.58F

$$




USA.gov is the U.S. government's official web portal to all federal, state and local government web resources and services.